DW6650 Weather Reports


Display with metric or nautical units.
time (UTC)temp
F
wind
direction
speed
MPH
gust
MPH
rain 1hr
in
rain 24hr
in
rain mn
in
humidity
%
barometer
mb
20240522155016 83 180 1.0 3.0 0.00 0.00 0.00 63 1018.5
20240522154516 84 113 2.0 5.0 0.00 0.00 0.00 65 1018.6
20240522154016 83 203 1.0 3.0 0.00 0.00 0.00 65 1018.7
20240522153516 83 90 1.0 3.0 0.00 0.00 0.00 64 1018.7
20240522153016 83 113 1.0 3.0 0.00 0.00 0.00 67 1018.6
20240522152517 82 113 1.0 2.0 0.00 0.00 0.00 69 1018.6
20240522152036 82 158 0.0 2.0 0.00 0.00 0.00 70 1018.6
20240522151516 82 158 1.0 3.0 0.00 0.00 0.00 68 1018.6
20240522151016 82 203 1.0 4.0 0.00 0.00 0.00 68 1018.7
20240522150516 82 0 1.0 2.0 0.00 0.00 0.00 69 1018.8
20240522150016 82 90 1.0 4.0 0.00 0.00 0.00 71 1018.6
20240522145516 81 90 1.0 4.0 0.00 0.00 0.00 73 1018.5
20240522145016 80 180 1.0 4.0 0.00 0.00 0.00 72 1018.6
20240522144516 80 135 1.0 2.0 0.00 0.00 0.00 73 1018.7
20240522144016 81 203 0.0 2.0 0.00 0.00 0.00 72 1018.6
20240522143516 81 68 1.0 2.0 0.00 0.00 0.00 73 1018.6
20240522143016 80 293 0.0 2.0 0.00 0.00 0.00 76 1018.7
20240522142536 80 113 0.0 1.0 0.00 0.00 0.00 76 1018.9
20240522142036 79 180 1.0 3.0 0.00 0.00 0.00 78 1019.0
20240522141516 79 270 1.0 3.0 0.00 0.00 0.00 78 1018.9
20240522141016 78 0 0.0 1.0 0.00 0.00 0.00 79 1018.9
20240522140516 78 180 0.0 1.0 0.00 0.00 0.00 79 1018.9
20240522140016 77 309 0.0 0.0 0.00 0.00 0.00 82 1018.9
20240522135516 76 338 1.0 2.0 0.00 0.00 0.00 82 1019.0
20240522135016 76 227 0.0 0.0 0.00 0.00 0.00 84 1018.9
20240522134516 75 225 0.0 2.0 0.00 0.00 0.00 83 1018.9
20240522134036 75 225 0.0 1.0 0.00 0.00 0.00 83 1018.9
20240522133516 75 223 0.0 0.0 0.00 0.00 0.00 85 1018.8
20240522133016 75 223 0.0 0.0 0.00 0.00 0.00 84 1018.9
20240522132516 74 225 0.0 2.0 0.00 0.00 0.00 85 1018.9
20240522132016 74 203 0.0 1.0 0.00 0.00 0.00 86 1018.7
20240522131516 74 203 0.0 2.0 0.00 0.00 0.00 86 1018.8
20240522131036 73 203 1.0 2.0 0.00 0.00 0.00 87 1019.0
20240522130516 73 203 0.0 2.0 0.00 0.00 0.00 88 1018.9
20240522130016 72 203 1.0 2.0 0.00 0.00 0.00 89 1018.9
20240522125516 72 203 0.0 2.0 0.00 0.00 0.00 90 1018.8
20240522125016 71 180 0.0 1.0 0.00 0.00 0.00 92 1018.9
20240522124516 71 180 0.0 2.0 0.00 0.00 0.00 92 1018.9
20240522124016 70 158 0.0 1.0 0.00 0.00 0.00 94 1018.9
20240522123536 70 155 0.0 0.0 0.00 0.00 0.00 95 1018.9
20240522123016 69 155 0.0 0.0 0.00 0.00 0.00 95 1018.8
20240522122516 68 158 0.0 1.0 0.00 0.00 0.00 96 1018.8
20240522122016 68 158 0.0 1.0 0.00 0.00 0.00 96 1018.8
20240522121536 67 186 0.0 0.0 0.00 0.00 0.00 96 1018.7
20240522121016 66 186 0.0 0.0 0.00 0.00 0.00 96 1018.6
20240522120536 66 186 0.0 0.0 0.00 0.00 0.00 96 1018.6
20240522120016 66 180 0.0 1.0 0.00 0.00 0.00 96 1018.6
20240522115515 65 186 0.0 0.0 0.00 0.00 0.00 96 1018.7
20240522115016 65 180 1.0 2.0 0.00 0.00 0.00 96 1018.7
20240522114515 65 113 1.0 2.0 0.00 0.00 0.00 97 1018.8
20240522114016 64 111 0.0 0.0 0.00 0.00 0.00 96 1018.6
20240522113515 64 111 0.0 0.0 0.00 0.00 0.00 96 1018.5
20240522113015 64 111 0.0 0.0 0.00 0.00 0.00 96 1018.4
20240522112516 64 111 0.0 0.0 0.00 0.00 0.00 96 1018.2
20240522112016 63 111 0.0 0.0 0.00 0.00 0.00 96 1018.1
20240522111515 63 111 0.0 0.0 0.00 0.00 0.00 96 1018.2
20240522111036 63 111 0.0 0.0 0.00 0.00 0.00 96 1018.2
20240522110515 63 111 0.0 0.0 0.00 0.00 0.00 95 1018.1
20240522110015 63 111 0.0 0.0 0.00 0.00 0.00 95 1018.0
20240522105516 63 111 0.0 0.0 0.00 0.00 0.00 95 1017.9
20240522105035 63 111 0.0 0.0 0.00 0.00 0.00 95 1018.0
20240522104515 64 111 0.0 0.0 0.00 0.00 0.00 95 1018.0
20240522104018 64 111 0.0 0.0 0.00 0.00 0.00 95 1018.0
20240522103518 64 111 0.0 0.0 0.00 0.00 0.00 95 1017.9
20240522103017 64 111 0.0 0.0 0.00 0.00 0.00 95 1017.8
20240522102517 64 111 0.0 0.0 0.00 0.00 0.00 95 1017.7
20240522102017 64 111 0.0 0.0 0.00 0.00 0.00 95 1017.6
20240522101517 64 111 0.0 0.0 0.00 0.00 0.00 95 1017.6
20240522101017 64 111 0.0 0.0 0.00 0.00 0.00 95 1017.5
20240522100517 64 111 0.0 0.0 0.00 0.00 0.00 95 1017.6
20240522100018 64 111 0.0 0.0 0.00 0.00 0.00 95 1017.5
20240522095516 64 111 0.0 0.0 0.00 0.00 0.00 95 1017.4
20240522095017 64 111 0.0 0.0 0.00 0.00 0.00 95 1017.3
20240522094517 64 113 0.0 1.0 0.00 0.00 0.00 95 1017.2
20240522094037 64 111 0.0 0.0 0.00 0.00 0.00 95 1017.1
20240522093517 64 111 0.0 0.0 0.00 0.00 0.00 94 1017.2
20240522093017 64 111 0.0 0.0 0.00 0.00 0.00 94 1017.3
20240522092517 64 111 0.0 0.0 0.00 0.00 0.00 94 1017.3
20240522092017 64 111 0.0 0.0 0.00 0.00 0.00 94 1017.4
20240522091517 64 111 0.0 0.0 0.00 0.00 0.00 94 1017.3
20240522091017 64 111 0.0 0.0 0.00 0.00 0.00 94 1017.2
20240522090518 64 111 0.0 0.0 0.00 0.00 0.00 94 1017.2
20240522090017 64 111 0.0 0.0 0.00 0.00 0.00 94 1017.3
20240522085517 64 111 0.0 0.0 0.00 0.00 0.00 94 1017.1
20240522085017 64 111 0.0 0.0 0.00 0.00 0.00 94 1017.1
20240522084517 64 111 0.0 0.0 0.00 0.00 0.00 94 1017.0
20240522084017 64 111 0.0 0.0 0.00 0.00 0.00 94 1017.0
20240522083517 64 111 0.0 0.0 0.00 0.00 0.00 94 1017.0
20240522083017 64 111 0.0 0.0 0.00 0.00 0.00 94 1017.0
20240522082537 64 111 0.0 0.0 0.00 0.00 0.00 94 1017.1
20240522082017 64 111 0.0 0.0 0.00 0.00 0.00 94 1017.1
20240522081517 64 111 0.0 0.0 0.00 0.00 0.00 94 1017.1
20240522081017 64 111 0.0 0.0 0.00 0.00 0.00 93 1017.1
20240522080517 64 111 0.0 0.0 0.00 0.00 0.00 93 1017.1
20240522080017 64 113 0.0 1.0 0.00 0.00 0.00 93 1017.1
20240522075517 64 111 0.0 0.0 0.00 0.00 0.00 93 1017.2
20240522075017 64 111 0.0 0.0 0.00 0.00 0.00 93 1017.2
20240522074537 64 111 0.0 0.0 0.00 0.00 0.00 93 1017.3
20240522074017 64 111 0.0 0.0 0.00 0.00 0.00 93 1017.2
20240522073537 65 111 0.0 0.0 0.00 0.00 0.00 93 1017.3
20240522073017 65 111 0.0 0.0 0.00 0.00 0.00 93 1017.3
20240522072517 65 113 0.0 1.0 0.00 0.00 0.00 93 1017.3
20240522072017 65 111 0.0 0.0 0.00 0.00 0.00 93 1017.3
20240522071517 65 111 0.0 0.0 0.00 0.00 0.00 93 1017.2
20240522071017 65 111 0.0 0.0 0.00 0.00 0.00 93 1017.1
20240522070518 65 111 0.0 0.0 0.00 0.00 0.00 92 1017.2
20240522070037 65 111 0.0 0.0 0.00 0.00 0.00 92 1017.0
20240522065517 65 111 0.0 0.0 0.00 0.00 0.00 92 1017.0
20240522065017 65 111 0.0 0.0 0.00 0.00 0.00 91 1017.0
20240522064537 65 113 0.0 1.0 0.00 0.00 0.00 91 1016.8
20240522064037 65 113 1.0 1.0 0.00 0.00 0.00 91 1016.7
20240522063537 65 113 0.0 1.0 0.00 0.00 0.00 91 1016.8
20240522063017 66 111 0.0 0.0 0.00 0.00 0.00 90 1016.7
20240522062517 66 111 0.0 0.0 0.00 0.00 0.00 90 1016.9
20240522062017 66 111 0.0 0.0 0.00 0.00 0.00 90 1017.1
20240522061517 66 111 0.0 0.0 0.00 0.00 0.00 89 1017.0
20240522061017 66 111 0.0 0.0 0.00 0.00 0.00 89 1017.0
20240522060517 66 111 0.0 0.0 0.00 0.00 0.00 90 1017.1
20240522060017 66 111 0.0 0.0 0.00 0.00 0.00 89 1017.0
20240522055517 66 111 0.0 0.0 0.00 0.00 0.00 89 1016.9
20240522055017 66 111 0.0 0.0 0.00 0.00 0.00 88 1017.0
20240522054517 66 111 0.0 0.0 0.00 0.00 0.00 88 1017.2
20240522054037 66 111 0.0 0.0 0.00 0.00 0.00 88 1016.9
20240522053517 67 111 0.0 0.0 0.00 0.00 0.00 88 1017.0
20240522053017 67 111 0.0 0.0 0.00 0.00 0.00 88 1017.1
20240522052516 67 111 0.0 0.0 0.00 0.00 0.00 88 1016.8
20240522052016 67 111 0.0 0.0 0.00 0.00 0.00 88 1016.8
20240522051537 67 113 0.0 1.0 0.00 0.00 0.00 88 1016.7
20240522051016 67 113 0.0 1.0 0.00 0.00 0.00 87 1016.5
20240522050516 67 158 0.0 1.0 0.00 0.00 0.00 87 1016.5
20240522050016 67 158 0.0 1.0 0.00 0.00 0.00 87 1016.6
20240522045537 67 158 1.0 1.0 0.00 0.00 0.00 87 1016.6
20240522045017 67 158 0.0 2.0 0.00 0.00 0.00 86 1016.6
20240522044516 67 158 0.0 2.0 0.00 0.00 0.00 86 1016.6
20240522044016 67 158 0.0 1.0 0.00 0.00 0.00 85 1016.6
20240522043537 67 158 1.0 1.0 0.00 0.00 0.00 85 1016.6
20240522043016 68 158 0.0 1.0 0.00 0.00 0.00 85 1016.7
20240522042516 68 152 0.0 0.0 0.00 0.00 0.00 85 1016.8
20240522042037 68 152 0.0 0.0 0.00 0.00 0.00 86 1016.9
20240522041517 68 152 0.0 0.0 0.00 0.00 0.00 85 1016.9
20240522041016 68 152 0.0 0.0 0.00 0.00 0.00 85 1016.8
20240522040516 68 152 0.0 0.0 0.00 0.00 0.00 84 1016.7
20240522040016 68 158 0.0 1.0 0.00 0.00 0.00 84 1016.7
20240522035517 68 152 0.0 0.0 0.00 0.00 0.00 84 1016.5
20240522035037 68 158 0.0 1.0 0.00 0.00 0.00 84 1016.5
20240522034517 68 152 0.0 0.0 0.00 0.00 0.00 83 1016.6
20240522034017 68 152 0.0 0.0 0.00 0.00 0.00 83 1016.5
20240522033537 68 152 0.0 0.0 0.00 0.00 0.00 83 1016.6
20240522033037 69 152 0.0 0.0 0.00 0.00 0.00 83 1016.6
20240522032517 69 158 0.0 1.0 0.00 0.00 0.00 83 1016.4
20240522032017 69 158 0.0 1.0 0.00 0.00 0.00 83 1016.4
20240522031517 69 152 0.0 0.0 0.00 0.00 0.00 83 1016.4
20240522031017 69 158 0.0 1.0 0.00 0.00 0.00 82 1016.3
20240522030517 69 158 0.0 2.0 0.00 0.00 0.00 82 1016.1
20240522030017 69 152 0.0 0.0 0.00 0.00 0.00 81 1016.1
20240522025517 70 158 0.0 1.0 0.00 0.00 0.00 81 1016.1
20240522025016 70 152 0.0 0.0 0.00 0.00 0.00 81 1016.2
20240522024537 70 152 0.0 0.0 0.00 0.00 0.00 80 1016.2
20240522024037 70 152 0.0 0.0 0.00 0.00 0.00 80 1016.2
20240522023517 70 152 0.0 0.0 0.00 0.00 0.00 79 1016.2
20240522023017 71 152 0.0 0.0 0.00 0.00 0.00 79 1016.2
20240522022516 71 152 0.0 0.0 0.00 0.00 0.00 79 1016.2
20240522022017 71 152 0.0 0.0 0.00 0.00 0.00 79 1016.1
20240522021517 71 152 0.0 0.0 0.00 0.00 0.00 78 1016.1
20240522021017 71 152 0.0 0.0 0.00 0.00 0.00 78 1015.9
20240522020516 72 152 0.0 0.0 0.00 0.00 0.00 77 1015.9
20240522020016 72 152 0.0 0.0 0.00 0.00 0.00 77 1015.8
20240522015516 72 152 0.0 0.0 0.00 0.00 0.00 76 1015.7
20240522015016 72 158 0.0 1.0 0.00 0.00 0.00 76 1015.7
20240522014516 73 158 0.0 1.0 0.00 0.00 0.00 75 1015.8
20240522014016 73 152 0.0 0.0 0.00 0.00 0.00 74 1015.8
20240522013516 73 152 0.0 0.0 0.00 0.00 0.00 74 1015.9
20240522013016 73 152 0.0 0.0 0.00 0.00 0.00 73 1015.9
20240522012516 74 152 0.0 0.0 0.00 0.00 0.00 73 1015.9
20240522012016 74 152 0.0 0.0 0.00 0.00 0.00 72 1016.0
20240522011516 74 152 0.0 0.0 0.00 0.00 0.00 72 1015.9
20240522011016 74 152 0.0 0.0 0.00 0.00 0.00 71 1015.8
20240522010516 74 152 0.0 0.0 0.00 0.00 0.00 69 1015.8
20240522010016 75 152 0.0 0.0 0.00 0.00 0.00 70 1015.8
20240522005516 75 152 0.0 0.0 0.00 0.00 0.00 70 1015.7
20240522005017 75 152 0.0 0.0 0.00 0.00 0.00 69 1015.7
20240522004516 76 152 0.0 0.0 0.00 0.00 0.00 69 1015.7
20240522004016 76 152 0.0 0.0 0.00 0.00 0.00 67 1015.7
20240522003516 77 152 0.0 0.0 0.00 0.00 0.00 65 1015.7
20240522003016 78 152 0.0 0.0 0.00 0.00 0.00 64 1015.7
20240522002536 78 152 0.0 0.0 0.00 0.00 0.00 63 1015.8
20240522002016 79 152 0.0 0.0 0.00 0.00 0.00 62 1015.9
20240522001516 79 152 0.0 0.0 0.00 0.00 0.00 63 1015.7
20240522001018 80 152 0.0 0.0 0.00 0.00 0.00 60 1015.6
20240522000536 80 152 0.0 0.0 0.00 0.00 0.00 59 1015.6
20240522000016 81 152 0.0 0.0 0.00 0.00 0.00 59 1015.5
20240521235536 82 152 0.0 0.0 0.00 0.00 0.00 57 1015.5
20240521235016 82 152 0.0 0.0 0.00 0.00 0.00 56 1015.4
20240521234536 83 152 0.0 0.0 0.00 0.00 0.00 56 1015.4
20240521234016 83 152 0.0 0.0 0.00 0.00 0.00 55 1015.4
20240521233516 84 158 0.0 1.0 0.00 0.00 0.00 55 1015.5
20240521233016 84 192 0.0 0.0 0.00 0.00 0.00 54 1015.4
20240521232516 84 158 0.0 1.0 0.00 0.00 0.00 54 1015.4
20240521232036 84 90 0.0 2.0 0.00 0.00 0.00 55 1015.4
20240521231516 84 90 0.0 1.0 0.00 0.00 0.00 54 1015.4
20240521231036 85 90 0.0 2.0 0.00 0.00 0.00 53 1015.5
20240521230516 85 0 0.0 2.0 0.00 0.00 0.00 53 1015.5
20240521230016 85 103 0.0 0.0 0.00 0.00 0.00 52 1015.5
20240521225516 86 101 0.0 0.0 0.00 0.00 0.00 50 1015.5
20240521225016 87 101 0.0 0.0 0.00 0.00 0.00 50 1015.7
20240521224536 87 68 0.0 2.0 0.00 0.00 0.00 49 1015.7
20240521224016 87 68 0.0 1.0 0.00 0.00 0.00 49 1015.7
20240521223516 87 293 1.0 2.0 0.00 0.00 0.00 48 1015.7
20240521223016 87 135 1.0 3.0 0.00 0.00 0.00 50 1015.7
20240521222516 86 68 1.0 3.0 0.00 0.00 0.00 52 1015.7
20240521222016 86 68 0.0 2.0 0.00 0.00 0.00 48 1015.7
20240521221536 86 113 0.0 3.0 0.00 0.00 0.00 50 1015.7
20240521221016 86 113 2.0 5.0 0.00 0.00 0.00 49 1015.7
20240521220516 86 113 0.0 3.0 0.00 0.00 0.00 48 1015.8
20240521220016 86 113 1.0 3.0 0.00 0.00 0.00 47 1015.8
20240521215516 87 113 0.0 2.0 0.00 0.00 0.00 49 1015.8
20240521215016 87 90 0.0 1.0 0.00 0.00 0.00 49 1015.7
20240521214516 87 90 1.0 5.0 0.00 0.00 0.00 47 1015.8
20240521214016 87 90 1.0 5.0 0.00 0.00 0.00 46 1015.8
20240521213516 87 90 1.0 3.0 0.00 0.00 0.00 47 1015.7
20240521213016 87 113 1.0 3.0 0.00 0.00 0.00 48 1015.7
20240521212516 87 90 0.0 3.0 0.00 0.00 0.00 52 1015.8
20240521212016 87 90 1.0 3.0 0.00 0.00 0.00 51 1015.7
20240521211515 86 135 1.0 5.0 0.00 0.00 0.00 50 1015.8
20240521211016 86 113 1.0 5.0 0.00 0.00 0.00 50 1015.7
20240521210515 85 90 1.0 3.0 0.00 0.00 0.00 51 1015.8
20240521210016 85 0 1.0 3.0 0.00 0.00 0.00 53 1015.9
20240521205516 85 90 1.0 3.0 0.00 0.00 0.00 53 1015.9
20240521205016 85 90 0.0 2.0 0.00 0.00 0.00 54 1016.0
20240521204515 85 113 0.0 4.0 0.00 0.00 0.00 53 1015.9
20240521204056 85 113 1.0 5.0 0.00 0.00 0.00 51 1016.0
20240521203515 85 113 0.0 2.0 0.00 0.00 0.00 56 1016.1
20240521203036 85 113 1.0 5.0 0.00 0.00 0.00 52 1016.2
20240521202536 85 90 1.0 3.0 0.00 0.00 0.00 54 1016.3
20240521202016 85 90 0.0 1.0 0.00 0.00 0.00 53 1016.3
20240521201536 85 113 1.0 3.0 0.00 0.00 0.00 51 1016.4
20240521201015 84 338 1.0 2.0 0.00 0.00 0.00 54 1016.4
20240521200515 84 113 2.0 5.0 0.00 0.00 0.00 51 1016.4
20240521200015 84 331 0.0 0.0 0.00 0.00 0.00 55 1016.5
20240521195515 84 338 0.0 1.0 0.00 0.00 0.00 56 1016.4
20240521195017 84 90 2.0 8.0 0.00 0.00 0.00 51 1016.5
20240521194517 84 248 1.0 5.0 0.00 0.00 0.00 52 1016.5
20240521194017 84 90 1.0 4.0 0.00 0.00 0.00 56 1016.6
20240521193517 84 113 2.0 4.0 0.00 0.00 0.00 54 1016.6
20240521193018 84 113 1.0 6.0 0.00 0.00 0.00 55 1016.6
20240521192517 84 113 1.0 3.0 0.00 0.00 0.00 52 1016.6
20240521192018 84 113 0.0 2.0 0.00 0.00 0.00 56 1016.6
20240521191517 84 68 1.0 3.0 0.00 0.00 0.00 57 1016.7
20240521191017 84 113 1.0 5.0 0.00 0.00 0.00 58 1016.8
20240521190517 84 0 1.0 4.0 0.00 0.00 0.00 55 1016.7
20240521190017 84 113 2.0 5.0 0.00 0.00 0.00 53 1016.7
20240521185517 83 338 2.0 7.0 0.00 0.00 0.00 55 1016.7
20240521185017 83 338 2.0 4.0 0.00 0.00 0.00 55 1016.7
20240521184538 83 315 2.0 6.0 0.00 0.00 0.00 56 1016.8
20240521184017 82 113 2.0 6.0 0.00 0.00 0.00 57 1016.8
20240521183517 83 158 0.0 2.0 0.00 0.00 0.00 55 1016.8
20240521183017 83 113 2.0 8.0 0.00 0.00 0.00 57 1016.9
20240521182517 82 113 3.0 9.0 0.00 0.00 0.00 57 1016.8
20240521182017 82 293 2.0 4.0 0.00 0.00 0.00 56 1016.9
20240521181517 82 90 1.0 3.0 0.00 0.00 0.00 55 1016.9
20240521181018 82 90 3.0 7.0 0.00 0.00 0.00 56 1016.9
20240521180517 82 113 2.0 7.0 0.00 0.00 0.00 56 1017.0
20240521180017 83 113 1.0 5.0 0.00 0.00 0.00 59 1016.9
20240521175517 82 113 1.0 5.0 0.00 0.00 0.00 59 1017.0
20240521175017 82 225 1.0 5.0 0.00 0.00 0.00 58 1017.1
20240521174517 83 225 1.0 4.0 0.00 0.00 0.00 58 1017.1
20240521174017 83 90 1.0 4.0 0.00 0.00 0.00 61 1017.2
20240521173517 82 113 1.0 4.0 0.00 0.00 0.00 62 1017.2
20240521173017 82 338 1.0 4.0 0.00 0.00 0.00 59 1017.2
20240521172557 82 68 1.0 5.0 0.00 0.00 0.00 59 1017.3
20240521172017 82 113 2.0 4.0 0.00 0.00 0.00 58 1017.2
20240521171517 82 135 1.0 3.0 0.00 0.00 0.00 60 1017.2
20240521171017 82 90 1.0 3.0 0.00 0.00 0.00 61 1017.3
20240521170557 82 90 2.0 4.0 0.00 0.00 0.00 61 1017.4
20240521170017 82 90 2.0 6.0 0.00 0.00 0.00 58 1017.5
20240521165517 82 338 1.0 4.0 0.00 0.00 0.00 59 1017.5
20240521165017 82 113 2.0 8.0 0.00 0.00 0.00 58 1017.5
20240521164517 82 315 2.0 6.0 0.00 0.00 0.00 60 1017.4
20240521164017 82 113 1.0 3.0 0.00 0.00 0.00 62 1017.5
20240521163517 82 113 1.0 5.0 0.00 0.00 0.00 59 1017.6
20240521163017 82 90 1.0 4.0 0.00 0.00 0.00 61 1017.7
20240521162517 82 90 2.0 4.0 0.00 0.00 0.00 61 1017.8
20240521162017 82 90 2.0 5.0 0.00 0.00 0.00 62 1017.7
20240521161517 81 90 1.0 4.0 0.00 0.00 0.00 61 1017.8
20240521161017 81 113 1.0 3.0 0.00 0.00 0.00 61 1017.8
20240521160517 81 135 1.0 5.0 0.00 0.00 0.00 64 1017.8
20240521160057 82 90 2.0 7.0 0.00 0.00 0.00 60 1017.8
20240521155517 82 338 1.0 3.0 0.00 0.00 0.00 61 1017.8